Weather Roundup
Issued by NWS Corpus Christi, TX

Home | Current Version | Previous Version | Text Only | Print | Product List | Glossary On
Versions: 1 2 3 4 5 6 7 8 9 10 11 12 13 14 15 16 17 18 19 20 21 22 23 24 25 26 27 28 29 30 31 32 33 34 35 36 37 38 39 40 41 42 43 44 45 46 47 48 49 50
000
ASUS44 KCRP 250110
HRRCRP

SOUTH TEXAS REGIONAL WEATHER ROUNDUP
NATIONAL WEATHER SERVICE CORPUS CHRISTI TX
800 PM CDT FRI OCT 24 2014


TXZ229>244-250200-
...CORPUS CHRISTI AREA OBSERVATIONS...

CITY           SKY/WX    TMP DP  RH WIND       PRES   REMARKS
CORPUS CHRISTI CLEAR     71  64  78 SE8       30.10R
NAS CORPUS CHR CLEAR     72  62  71 SE9       30.10R
ROCKPORT       CLEAR     74  62  66 SE9       30.10R
KINGSVILLE NAS CLEAR     73  63  70 SE8       30.10R
ALICE          CLEAR     75  59  57 SE7       30.09R
FALFURRIAS     CLEAR     73  60  62 E6        30.09R
$$

...VICTORIA AREA OBSERVATIONS...

CITY           SKY/WX    TMP DP  RH WIND       PRES   REMARKS
VICTORIA       CLEAR     72  58  61 E8        30.10R
BEEVILLE       FAIR      75  57  52 SE6       30.09R
PLEASANTON     CLEAR     77  58  53 CALM      30.10R
SAN ANTONIO    PTCLDY    76  57  51 SE8       30.10R
$$

...LAREDO AREA OBSERVATIONS...

CITY           SKY/WX    TMP DP  RH WIND       PRES   REMARKS
LAREDO         CLEAR     81  62  52 CALM      30.10R
COTULLA        CLEAR     81  58  45 E3        30.08R
DEL RIO        CLEAR     78  63  59 E5        30.08R
MCALLEN        CLEAR     77  63  61 E10       30.10R
HEBBRONVILLE   CLEAR     76  57  51 E7        30.11R
$$

...OTHER TEXAS OBSERVATIONS...

CITY           SKY/WX    TMP DP  RH WIND       PRES   REMARKS
BROWNSVILLE    CLEAR     73  65  75 NE3       30.10R
HOUSTON        PTCLDY    67  58  72 E3        30.11R
COL. STATION   CLEAR     72  59  63 CALM      30.11R
AUSTIN         CLEAR     74  60  61 SE5       30.10R
WACO           CLEAR     72  60  66 SE8       30.09R
FORT WORTH     PTCLDY    76  60  57 S7        30.07R
WICHITA FALLS  PTCLDY    73  59  61 SE6       30.03R
LUBBOCK        CLEAR     73  51  46 S9        30.12R
EL PASO        CLEAR     75  46  35 E5        30.16R
$$

...MARINE OBSERVATIONS...

STATION/POSITION TIME  SKY/WX   TEMP    WIND        PRES    VSBY  WAVE   SWELL
                                AIR SEA DIR/SP/G                  HT/PER HT/PER
                 (UTC)          (F)     (DEG/KT/KT) (MB)    (MI)  (FT/S) (FT/S)
PORT ARANSAS     0100            76 79  100/  8/  9 1020.3R
BUOY 90 E PORT A 0100            74 81   40/ 10/ 12 1019.8R         3/ 8   2/ 8
BUOY 45 SE BAFFI 0100            76 80   50/  8/ 12 1018.9R         3/ 7   3/ 7
BUOY 200 E PT IS 0100            76 81   10/ 12/ 16 1017.8R         4/ 8   3/ 8
BUOY 15 E GALVES 0100            71 77   90/  2/  2 1019.4R         2/ 8   2/ 8
$$



USA.gov is the U.S. government's official web portal to all federal, state and local government web resources and services.